Location: Most
(50.5133°N, 13.6207°E)
Time: 21:30:30
(UTC+02:00)

ISS - Pass Details

Date: 27 September 2024
Orbit: 412 x 424 km, 51.6° (Epoch: 09 October)

Event Time Altitude Azimuth Distance (km) Brightness Sun altitude
Rises 19:50:12 0° 286° (WNW) 2,368 2.2 -10.1°
Reaches altitude 10° 19:52:20 10° 281° (W) 1,505 0.7 -10.4°
Maximum altitude 19:55:37 48° 206° (SSW) 557 -3.0 -11.0°
Enters shadow 19:58:18 14° 133° (SE) 1,278 -1.8 -11.4°
